SL-16 DEB, 22620

Orbit data source: Space-Track

SL-16 DEB, 22620 is space debris in LEO originally from a launch on Fri, 26 Mar 1993 UTC launched from the Tyuratam Missile And Space Complex (TTMTR). Debris objects in space refer to the collection of defunct objects orbiting the Earth. Examples of debris include non-operational satellites, rocket bodies, and fragments generated from explosions, collisions, or faulty payload assembly.

Loading next visibility...
Identifier
22620, 1993-016AE
Orbit
LEO
Country
Flag of CISCIS
Related business
Manufacturer
Unknown
Mission
Spacecraft
Bus & Motor
Unknown
Mass
Unknown
Launch date (UTC)
1993-03-26 (32 years ago)
Launch vehicle
Unknown
Launch site
Tyuratam Missile And Space Complex (TTMTR)
Object type
Payload
Rocket body
Debris
Shape & HBR
Unknown
Radar Cross Section
Medium (>0.1 m² and <1 m²)

Expand to show TLE details & history
Last TLE update: 20 hours ago

TLE from 20 hours ago
0 SL-16 DEB
1 22620U 93016AE  25258.31058126  .00000029  00000-0  61829-4 0  9990
2 22620  71.0086  24.3234 0136206 248.5700 128.6036 13.84095881639504
Epoch: 2025-09-15T07:27Z
TLE epoch observation values (Epoch: 2025-09-15T07:27:14.22Z)
Latitude
17.34475°
Longitude
-75.86433°
Altitude
1,014.266 km
Speed
7.315 km/s
True Right ascension
02h 01m 50s
True Declination
17° 15' 02"
Sunlit
Object was in full shadow at epoch
Visualization orbit readout
Latitude
Unknown
Longitude
Unknown
Altitude
Unknown
Speed
Unknown
Apparent Right ascension
Unknown
Apparent Declination
Unknown
Sunlit
N/A
Visualization observer readout
Local Sidereal Time
19:38:16
Azimuth
Unknown
Elevation
Unknown
Doppler factor
Unknown
Orbital elements
Apogee altitude
1,047.126 km
Perigee altitude
847.571 km
Semi-major axis
7,325.486 km
Eccentricity
0.01362
Inclination
71.0086°
RAAN
24.3234°
Arg. of periapsis
248.57°
True anomaly
129.81043°
Mean anomaly
128.6036°
Eccentric anomaly
129.2083°
Mean motion
3.46169 °/min
Orbital period
104 mins
BSTAR
0.000061829
Loading maneuver chart data...
Computing Atmospheric mass density...
Loading historical data...
Loading historical data...
Loading historical data...
Loading historical data...
Loading historical data...
Loading historical data...
Loading historical data...

Documentation

Showing up to 5 results
|